Wind_Speed
14 14 13 11 10 8 7 6 6 5 4 6 6 6 6 6 6 5 4 3 3 2 2 2 2 1 1 1 2 2 3 4 5 6 6 7 8 8 8 8 9 9 9 10 10 10 10 10 11
16 15 14 13 12 10 9 8 7 6 5 6 6 7 6 6 6 5 4 3 3 2 2 2 2 1 1 1 2 2 2 4 5 6 7 7 8 9 9 9 10 10 9 10 10 10 10 10 11
17 17 16 15 14 12 10 9 8 7 6 6 7 8 7 7 6 6 4 3 3 3 3 3 3 2 1 1 2 3 3 4 5 6 7 8 8 9 9 10 10 10 10 10 10 11 10 10 11
18 17 17 16 15 14 12 10 8 8 7 7 7 7 7 7 6 6 5 4 3 3 3 3 3 2 2 1 2 3 3 4 5 6 7 8 9 9 10 10 10 10 10 11 11 11 11 11 11
19 18 18 17 16 14 13 12 10 9 8 8 8 8 7 6 6 6 5 4 4 4 4 4 3 2 2 2 2 2 3 4 5 6 7 9 9 10 10 10 10 11 11 11 12 12 12 11 11
20 19 18 17 16 15 15 13 11 10 9 9 9 9 8 6 6 6 6 5 5 5 4 4 3 2 2 1 2 2 3 4 5 6 8 9 9 10 10 10 11 11 11 12 12 13 12 12 12
21 20 19 18 17 16 15 13 12 11 11 10 9 9 9 7 6 6 6 5 6 5 5 4 3 2 2 1 2 2 3 4 5 7 8 8 9 9 9 10 11 11 12 12 12 12 12 12 12
21 21 20 20 18 17 15 14 13 12 12 11 11 10 9 8 7 7 6 6 6 6 5 4 3 3 2 2 2 2 3 4 6 7 7 8 8 9 10 10 11 12 12 12 12 12 12 12 12
21 21 20 19 18 17 15 14 12 12 13 12 12 11 9 9 8 8 7 7 7 6 5 4 3 3 2 2 2 2 3 4 5 7 7 8 9 10 10 11 12 12 12 12 12 11 11 11 11
22 21 21 20 19 17 15 15 14 13 13 13 12 11 10 9 8 8 7 7 7 6 5 4 4 3 2 2 3 3 4 5 6 7 8 9 10 10 11 11 12 12 12 12 12 11 10 10 10
22 21 21 20 19 17 15 14 14 13 13 13 12 11 10 10 9 9 8 7 7 6 6 5 4 3 3 3 3 3 4 5 6 7 8 10 10 10 11 12 12 12 12 12 11 11 10 9 9
22 22 21 20 19 17 15 14 14 12 12 12 11 10 10 10 10 10 9 8 8 7 6 5 4 3 3 4 4 4 4 5 7 8 8 10 10 11 11 12 12 12 12 11 10 10 9 9 9
22 22 22 21 20 18 16 15 13 12 12 11 12 11 10 10 10 11 10 9 8 7 6 5 5 4 4 4 4 4 5 5 6 7 8 10 11 11 12 12 12 12 12 11 11 10 9 9 8
22 22 22 21 20 19 17 15 14 12 13 13 13 13 12 11 10 11 11 10 9 8 7 6 5 5 4 4 4 4 5 5 6 8 9 10 11 11 11 12 12 12 12 11 10 10 9 8 7
22 22 21 20 19 18 17 16 15 14 14 14 14 14 13 12 11 11 11 10 10 9 8 7 6 5 5 5 5 5 5 6 7 8 9 10 10 11 11 12 12 12 12 11 10 9 9 8 7
22 22 20 20 20 19 17 16 16 16 15 14 14 14 13 12 12 11 11 10 10 9 8 7 6 5 5 5 5 5 6 6 7 8 8 9 10 11 11 11 12 12 12 11 10 9 8 8 7
23 22 21 20 20 19 18 16 16 17 15 14 14 14 13 13 12 11 11 11 10 10 9 8 6 6 5 5 5 6 6 6 6 7 8 9 10 11 11 11 12 12 12 11 10 9 8 8 7
21 21 21 21 20 19 18 17 17 17 17 15 14 14 14 13 12 12 11 11 10 10 9 8 7 6 5 5 5 5 5 5 6 7 7 9 10 10 11 11 11 11 11 11 10 10 9 8 7
19 19 20 20 20 19 18 17 17 17 17 16 15 14 14 13 12 12 11 10 10 10 9 8 7 5 4 4 4 4 4 5 5 6 7 9 10 10 11 11 11 11 11 11 11 10 10 9 7
19 18 19 19 18 18 18 17 17 17 16 15 15 14 13 13 13 12 12 11 11 10 9 8 6 5 4 3 3 3 4 5 5 6 7 9 9 10 10 11 11 11 11 11 11 11 10 10 8
17 17 18 18 17 18 18 17 16 16 16 15 15 14 13 13 13 12 12 11 11 10 9 8 6 5 4 3 2 3 3 4 5 6 7 8 9 10 10 11 10 10 11 12 12 11 11 10 9
16 16 16 16 17 17 17 17 16 16 15 14 14 13 13 13 12 13 12 11 10 10 9 8 6 5 3 3 3 3 3 4 5 6 7 8 9 10 10 11 11 11 12 12 12 12 11 10 9
14 15 15 16 16 16 17 17 16 16 15 14 13 13 13 13 13 12 12 12 11 10 9 8 6 5 4 3 4 3 4 4 5 6 7 8 9 9 10 11 11 12 12 12 13 12 12 11 10
15 15 15 16 17 16 15 16 16 15 14 14 14 13 14 13 13 13 13 13 12 11 9 8 7 5 4 4 4 3 3 4 5 6 7 8 8 9 10 11 11 12 12 12 13 13 12 12 11
15 14 15 15 16 15 14 15 15 15 14 14 15 15 15 14 13 13 13 13 12 11 9 8 7 6 5 5 4 3 3 4 5 6 7 7 8 8 10 10 11 11 12 12 12 13 12 12 12
14 13 13 13 13 13 13 13 14 14 14 14 15 15 15 15 14 13 14 13 12 11 10 9 7 6 6 6 5 4 4 5 5 6 7 7 7 8 9 10 11 11 12 12 12 13 12 12 12
14 13 11 12 12 12 12 12 12 14 14 14 14 14 14 14 14 14 13 13 12 12 10 10 8 8 7 6 5 5 5 5 6 6 6 6 7 8 9 10 10 11 12 12 12 12 12 12 12
13 12 12 12 13 13 12 11 12 13 14 15 14 14 14 14 14 14 13 13 13 12 11 10 9 8 7 7 6 5 5 6 6 6 6 7 7 8 9 10 10 11 11 12 12 12 12 12 12
12 11 11 11 12 12 11 10 12 13 14 14 15 14 15 15 14 14 14 13 12 12 11 10 9 8 7 7 6 6 6 6 6 6 6 7 8 8 9 9 10 11 11 11 11 11 12 12 12
12 11 11 11 10 10 9 10 12 12 13 13 15 15 15 15 15 15 15 14 13 12 11 10 10 9 8 8 7 7 7 7 7 7 7 8 8 8 9 9 9 10 11 11 11 12 12 12 12
Wind_Direction
238 240 242 243 248 249 254 257 259 264 250 221 216 208 195 194 189 188 186 186 188 196 187 187 191 212 272 323 353 353 355 356 352 351 346 342 336 333 327 323 316 309 304 301 297 292 288 285 282
237 240 242 242 245 249 249 251 251 258 244 220 212 206 197 199 194 191 189 188 187 207 205 193 194 213 251 314 325 329 355 1 354 353 349 344 339 334 330 324 319 313 309 305 301 296 291 286 283
237 238 241 241 243 246 246 248 250 242 232 222 213 211 205 199 196 191 189 190 192 201 200 200 202 224 251 293 315 326 343 348 349 349 345 341 336 332 329 325 320 314 309 307 304 300 295 288 283
237 237 239 240 242 243 243 241 244 242 225 221 214 207 200 196 190 184 187 195 194 188 193 197 204 232 246 277 313 325 335 342 343 343 340 335 331 329 326 323 319 314 310 307 305 301 295 289 282
236 236 238 240 240 239 241 236 235 234 225 219 211 200 189 186 186 187 192 196 191 179 186 188 196 212 236 273 313 326 335 339 341 339 336 332 329 327 325 323 319 315 311 308 303 299 295 292 286
234 234 235 237 235 234 236 235 233 225 220 218 208 198 190 189 191 195 195 192 190 186 188 188 199 213 225 268 302 321 328 333 337 335 334 333 330 326 323 322 321 317 313 310 305 299 294 291 285
233 232 232 232 231 228 232 231 227 224 218 214 205 198 189 188 194 195 199 199 193 191 191 196 197 207 230 262 294 318 331 333 334 335 335 335 333 330 326 323 320 318 315 310 306 303 296 290 284
231 230 230 229 229 229 230 228 224 223 216 212 207 204 193 193 195 196 201 202 195 192 193 197 198 208 230 263 294 311 327 333 336 338 338 339 338 334 330 327 324 321 317 313 308 304 297 290 283
228 228 227 227 229 230 230 226 227 227 221 211 205 207 204 198 195 196 198 203 197 192 197 203 203 211 233 266 289 304 318 329 335 338 338 338 336 334 333 332 328 324 321 317 312 307 300 291 284
225 225 225 225 227 228 231 233 233 227 220 211 204 202 201 195 193 195 195 195 193 193 199 203 204 215 239 264 282 294 310 323 331 333 333 334 334 334 334 334 332 328 324 319 314 309 303 296 288
222 221 221 222 224 227 230 231 231 228 216 207 199 193 194 195 194 196 199 199 195 195 198 203 208 228 246 260 269 285 304 321 329 333 335 336 335 334 333 332 331 329 325 322 318 313 308 300 294
220 219 218 219 222 225 225 225 224 220 214 204 199 192 193 198 199 199 200 200 196 196 200 202 211 231 250 256 266 285 302 319 326 331 334 336 336 335 333 332 330 329 328 327 325 320 315 308 299
217 216 215 216 220 221 221 222 221 215 208 204 203 200 200 201 204 206 205 203 203 201 203 204 210 229 247 260 278 294 301 310 321 329 334 335 335 335 334 332 332 331 331 330 329 325 321 313 303
214 214 214 215 216 217 221 221 219 218 208 204 204 203 203 204 203 204 203 203 204 202 204 210 220 235 251 266 279 292 297 303 316 326 331 332 334 335 335 334 335 335 334 333 331 329 327 320 311
211 212 213 212 212 215 217 216 213 208 201 201 204 204 203 203 202 202 201 203 203 202 206 215 225 235 252 266 278 293 299 305 314 322 328 332 334 336 338 338 339 340 339 337 336 333 333 328 317
210 211 212 210 211 213 212 212 211 202 198 197 200 203 204 200 198 199 200 204 205 205 207 216 224 235 251 262 273 289 300 307 315 323 328 333 338 340 341 342 343 344 344 342 340 337 335 332 323
210 210 209 209 211 213 212 207 205 201 201 199 200 202 204 201 198 199 200 203 206 206 209 217 227 238 250 258 269 285 298 307 318 326 330 337 341 343 344 344 346 347 348 348 346 343 338 335 331
208 207 208 210 210 211 209 205 201 202 202 200 199 203 206 201 199 200 200 202 206 210 214 220 229 238 247 256 266 281 301 316 322 327 333 340 343 345 346 348 349 350 351 351 350 349 345 341 339
202 203 205 207 210 212 210 205 202 204 204 202 200 202 207 206 202 201 203 206 209 212 218 221 226 233 244 256 267 288 311 323 329 333 339 344 346 347 349 351 352 353 354 354 354 354 352 347 342
199 201 203 204 207 208 207 206 203 206 207 203 202 202 206 206 204 204 209 210 209 211 215 217 220 228 242 252 269 297 316 327 333 337 341 344 347 350 353 355 355 356 357 358 358 357 357 354 347
198 200 201 203 202 203 203 201 200 205 206 203 201 203 207 205 205 204 206 209 208 207 212 216 219 224 237 252 274 301 318 332 338 341 343 347 350 353 357 1 1 360 0 1 0 0 359 357 354
195 197 200 202 203 205 205 204 200 203 204 204 204 205 208 207 207 205 203 204 203 202 207 211 216 221 234 253 270 293 314 329 338 342 345 350 354 357 359 1 2 2 2 2 3 4 2 360 359
187 192 196 199 203 204 204 206 203 207 205 203 204 206 208 208 208 207 204 202 203 205 207 210 218 222 234 250 267 288 309 323 331 338 342 348 353 356 359 1 3 4 4 4 5 6 5 3 3
186 191 195 199 202 204 203 208 206 208 209 206 206 207 207 208 209 207 205 203 204 206 209 214 218 225 237 250 261 281 306 320 326 332 339 346 351 353 354 358 1 4 5 6 7 8 8 7 6
190 193 195 201 207 208 207 211 209 208 207 204 204 205 207 209 210 208 208 205 207 209 213 218 217 225 240 252 261 274 301 316 327 332 337 342 346 349 353 356 358 1 4 6 7 7 7 6 7
192 196 199 206 210 210 215 216 209 209 207 204 205 206 208 210 211 210 208 208 210 212 217 219 221 231 243 251 262 272 291 304 318 328 330 334 340 344 348 351 355 359 2 4 6 6 5 5 5
194 199 208 215 216 217 218 214 211 208 209 208 207 208 209 209 207 206 206 210 212 216 220 220 225 232 239 248 259 268 284 304 316 321 322 326 331 338 344 347 350 353 355 357 360 4 5 5 3
199 202 207 215 219 220 218 214 210 208 208 209 209 210 210 208 208 206 208 211 211 217 220 221 226 230 235 245 252 265 283 300 312 317 318 324 329 335 340 343 345 347 350 355 358 0 2 1 0
197 200 207 215 218 217 218 211 209 208 209 209 211 213 213 212 210 208 209 209 210 215 221 225 228 231 237 245 255 265 277 291 301 307 314 320 326 332 335 338 340 343 346 350 352 353 355 355 354
199 203 208 214 218 222 220 208 212 210 209 211 212 213 213 213 211 210 210 210 212 218 222 225 229 232 236 244 252 263 276 287 293 300 306 312 318 323 328 330 333 337 340 342 344 345 346 347 348
Height
5859 5860 5861 5863 5865 5865 5865 5866 5865 5866 5866 5867 5867 5868 5870 5872 5874 5877 5876 5875 5876 5876 5877 5877 5878 5878 5878 5878 5878 5877 5877 5877 5877 5876 5876 5875 5875 5874 5874 5873 5872 5872 5871 5871 5871 5871 5871 5871 5872
5856 5858 5860 5862 5862 5863 5864 5864 5865 5865 5866 5866 5867 5868 5869 5870 5872 5873 5874 5875 5876 5876 5877 5877 5878 5878 5878 5878 5878 5877 5877 5877 5877 5876 5875 5875 5874 5873 5872 5872 5871 5870 5870 5869 5869 5869 5870 5870 5870
5854 5855 5858 5859 5860 5862 5863 5863 5864 5864 5865 5865 5866 5867 5868 5870 5871 5872 5874 5875 5875 5876 5876 5877 5877 5877 5878 5878 5878 5877 5877 5877 5876 5876 5875 5874 5873 5872 5872 5871 5870 5869 5868 5868 5868 5867 5867 5868 5868
5851 5854 5856 5857 5858 5860 5861 5862 5863 5863 5864 5865 5866 5867 5868 5869 5870 5872 5873 5874 5875 5876 5876 5877 5877 5877 5878 5878 5877 5877 5877 5876 5876 5875 5874 5873 5873 5872 5871 5870 5869 5868 5867 5866 5866 5865 5865 5865 5865
5848 5851 5853 5854 5856 5858 5859 5860 5861 5863 5863 5864 5865 5866 5867 5869 5870 5871 5872 5874 5874 5875 5876 5876 5877 5877 5877 5878 5877 5877 5877 5876 5875 5875 5874 5873 5872 5871 5870 5869 5867 5866 5865 5865 5864 5863 5863 5863 5863
5846 5848 5850 5852 5853 5855 5857 5858 5860 5861 5862 5863 5864 5866 5867 5868 5870 5871 5872 5873 5874 5875 5876 5876 5876 5877 5877 5877 5877 5877 5876 5876 5875 5874 5873 5872 5871 5870 5869 5867 5866 5865 5864 5863 5862 5861 5860 5860 5860
5843 5845 5847 5849 5851 5853 5855 5856 5858 5860 5861 5862 5863 5865 5866 5868 5869 5870 5871 5872 5873 5874 5875 5876 5876 5876 5877 5877 5876 5876 5876 5875 5874 5873 5872 5871 5870 5869 5868 5866 5865 5863 5862 5861 5860 5859 5858 5858 5858
5838 5842 5844 5846 5848 5851 5853 5854 5856 5858 5859 5861 5862 5864 5866 5867 5869 5870 5871 5872 5873 5874 5875 5875 5876 5876 5876 5876 5876 5876 5875 5874 5874 5873 5872 5871 5869 5868 5867 5865 5864 5862 5860 5859 5858 5857 5856 5855 5855
5835 5839 5841 5843 5846 5848 5851 5853 5854 5856 5858 5859 5861 5863 5865 5866 5868 5869 5870 5871 5872 5873 5874 5875 5875 5875 5876 5876 5875 5875 5875 5874 5873 5872 5871 5870 5869 5867 5865 5864 5862 5860 5859 5857 5856 5854 5853 5853 5853
5832 5835 5838 5841 5844 5846 5848 5851 5852 5854 5856 5858 5860 5861 5863 5865 5867 5868 5869 5871 5872 5872 5873 5874 5875 5875 5875 5875 5875 5875 5874 5874 5873 5872 5870 5869 5868 5866 5864 5862 5861 5859 5857 5855 5854 5852 5851 5851 5850
5828 5832 5835 5838 5841 5844 5846 5849 5851 5852 5854 5856 5858 5860 5862 5864 5866 5867 5869 5870 5871 5872 5873 5873 5874 5874 5874 5875 5874 5874 5874 5873 5872 5871 5870 5868 5866 5865 5863 5861 5859 5857 5855 5853 5852 5850 5849 5849 5848
5825 5829 5832 5835 5838 5841 5844 5846 5849 5851 5853 5855 5857 5859 5861 5863 5865 5866 5868 5869 5870 5871 5872 5872 5873 5873 5874 5874 5874 5874 5873 5872 5871 5870 5869 5867 5865 5864 5862 5860 5858 5856 5854 5852 5850 5849 5847 5847 5846
5822 5825 5829 5833 5836 5839 5842 5844 5847 5849 5851 5853 5856 5858 5860 5862 5864 5865 5867 5868 5869 5870 5871 5872 5872 5873 5873 5873 5873 5873 5872 5871 5870 5869 5868 5866 5864 5862 5861 5858 5856 5854 5852 5850 5848 5847 5846 5845 5844
5819 5822 5826 5830 5833 5836 5840 5842 5845 5847 5850 5852 5854 5857 5859 5861 5862 5864 5865 5867 5868 5869 5870 5871 5871 5872 5872 5872 5872 5872 5871 5871 5869 5868 5867 5865 5863 5861 5860 5857 5855 5853 5851 5849 5847 5845 5844 5843 5842
5816 5821 5824 5828 5831 5834 5838 5840 5843 5845 5848 5850 5853 5855 5857 5859 5861 5862 5864 5866 5867 5868 5869 5870 5870 5871 5871 5871 5871 5871 5870 5870 5869 5867 5866 5864 5862 5860 5858 5856 5854 5852 5849 5847 5845 5844 5842 5841 5841
5814 5818 5822 5826 5829 5832 5837 5839 5841 5843 5846 5848 5851 5854 5856 5858 5860 5861 5863 5864 5866 5867 5868 5869 5869 5870 5870 5870 5870 5870 5869 5869 5868 5866 5865 5863 5861 5859 5857 5855 5853 5851 5848 5846 5844 5843 5841 5840 5839
5812 5816 5820 5824 5827 5830 5833 5836 5839 5841 5844 5847 5850 5852 5854 5856 5858 5860 5862 5863 5865 5866 5867 5868 5868 5869 5869 5869 5869 5869 5868 5868 5867 5865 5864 5862 5861 5859 5857 5854 5852 5850 5847 5845 5843 5842 5840 5839 5838
5810 5814 5818 5821 5825 5827 5831 5834 5837 5839 5843 5846 5848 5851 5853 5855 5857 5859 5860 5862 5863 5865 5866 5866 5867 5868 5868 5868 5868 5868 5868 5867 5866 5864 5863 5862 5860 5858 5856 5853 5851 5849 5847 5845 5843 5841 5839 5838 5836
5808 5813 5816 5820 5823 5826 5829 5833 5836 5838 5841 5844 5846 5849 5851 5853 5855 5857 5859 5860 5862 5863 5864 5865 5866 5867 5867 5867 5867 5867 5867 5866 5865 5864 5862 5861 5859 5857 5855 5853 5851 5848 5846 5844 5842 5840 5838 5837 5836
5807 5811 5815 5819 5822 5825 5828 5831 5834 5836 5839 5842 5844 5847 5849 5852 5854 5855 5857 5859 5860 5862 5863 5864 5865 5865 5866 5866 5866 5866 5866 5865 5864 5863 5862 5860 5859 5857 5855 5852 5850 5848 5846 5844 5842 5840 5838 5836 5835
5807 5811 5814 5818 5820 5823 5826 5830 5833 5835 5837 5840 5842 5845 5848 5850 5852 5854 5856 5858 5859 5860 5862 5863 5864 5864 5865 5865 5866 5866 5865 5864 5864 5863 5861 5860 5858 5856 5854 5852 5850 5848 5846 5844 5842 5839 5838 5836 5834
5807 5810 5813 5816 5819 5822 5826 5828 5831 5833 5836 5839 5841 5844 5846 5848 5850 5852 5854 5856 5858 5859 5860 5862 5863 5863 5864 5865 5865 5865 5864 5864 5863 5862 5861 5859 5858 5856 5854 5852 5850 5849 5846 5844 5842 5839 5837 5836 5834
5807 5810 5813 5815 5818 5821 5824 5827 5830 5832 5835 5838 5840 5842 5845 5846 5848 5850 5853 5855 5856 5858 5859 5861 5862 5863 5863 5864 5864 5864 5863 5863 5862 5861 5860 5859 5858 5856 5854 5852 5850 5849 5847 5844 5842 5840 5838 5836 5834
5806 5810 5812 5814 5817 5820 5823 5825 5829 5831 5834 5836 5838 5841 5843 5845 5847 5849 5851 5853 5855 5856 5858 5859 5860 5861 5862 5863 5863 5863 5862 5862 5861 5861 5860 5859 5857 5856 5854 5852 5851 5849 5847 5845 5842 5840 5838 5836 5834
5807 5810 5812 5814 5816 5819 5822 5824 5828 5830 5832 5834 5837 5839 5841 5843 5845 5847 5849 5851 5853 5855 5857 5858 5859 5860 5861 5861 5861 5861 5861 5861 5861 5860 5859 5858 5857 5856 5854 5852 5851 5849 5847 5845 5843 5840 5838 5836 5835
5806 5810 5813 5815 5817 5819 5821 5822 5827 5828 5830 5832 5835 5837 5839 5841 5843 5845 5847 5849 5851 5853 5855 5856 5858 5859 5860 5860 5860 5860 5860 5860 5860 5859 5858 5857 5856 5855 5854 5852 5851 5849 5847 5845 5843 5841 5839 5837 5835
5806 5808 5811 5814 5815 5817 5819 5822 5825 5826 5829 5831 5833 5835 5838 5839 5842 5844 5846 5847 5850 5852 5853 5855 5856 5857 5858 5858 5859 5859 5859 5859 5858 5858 5857 5856 5856 5854 5853 5852 5850 5849 5847 5845 5843 5841 5839 5837 5835
5807 5809 5811 5812 5814 5816 5819 5821 5823 5825 5827 5829 5832 5834 5836 5838 5840 5842 5844 5846 5848 5850 5852 5853 5854 5855 5856 5857 5857 5857 5858 5857 5857 5857 5856 5855 5855 5854 5852 5851 5850 5848 5846 5845 5843 5841 5839 5837 5836
5807 5809 5810 5812 5814 5816 5818 5822 5822 5823 5825 5827 5829 5832 5834 5836 5838 5840 5842 5844 5846 5848 5850 5851 5852 5853 5854 5855 5855 5856 5856 5856 5856 5855 5855 5854 5853 5852 5851 5850 5849 5847 5846 5844 5842 5841 5839 5837 5836
5805 5807 5810 5812 5814 5815 5817 5822 5820 5822 5823 5825 5827 5829 5831 5833 5835 5838 5840 5842 5844 5846 5848 5849 5850 5851 5852 5853 5854 5854 5854 5854 5854 5853 5853 5852 5852 5851 5850 5849 5848 5846 5845 5843 5842 5840 5839 5837 5835